Location: Unspecified
(0.0000°N, 0.0000°E)
Time: 22:38:25
(UTC+00:00)

GONETS D1M 1 - Pass Details

Date: 22 May 2026
Orbit: 1435 x 1447 km, 82.5° (Epoch: 7 June)

Event Time Altitude Azimuth Distance (km) Brightness Sun altitude
Rises 19:10:06 0° 313° (NW) 4,517 10.6 -17.1°
Reaches altitude 10° 19:16:12 10° 280° (W) 3,541 9.9 -18.6°
Maximum altitude 19:18:03 11° 267° (W) 3,477 9.6 -19.0°
Drops below altitude 10° 19:19:54 10° 254° (WSW) 3,542 9.4 -19.4°
Sets 19:26:06 0° 220° (SW) 4,522 9.5 -20.9°
